Location: Clarion
(42.7316°N, 93.7330°W)
Time: 09:39:13
(UTC+00:00)

CZ-2D R/B - Pass Details

Date: 22 April 2026
Orbit: 789 x 841 km, 98.9° (Epoch: 16 May)

Event Time Altitude Azimuth Distance (km) Brightness Sun altitude
Rises 10:40:34 0° 357° (N) 3,312 5.6 -8.0°
Reaches altitude 10° 10:43:47 10° 336° (NNW) 2,386 4.6 -7.4°
Maximum altitude 10:46:48 16° 301° (WNW) 2,020 3.9 -6.9°
Drops below altitude 10° 10:49:49 10° 266° (W) 2,396 4.0 -6.4°
Enters shadow 10:50:52 - 257° (WSW) 2,657 4.1 -6.2°
